Voltar ao catálogo

CZ-4B DEB

AtivoSSO
NORAD 29536·DEBRIS·🇨🇳 China

Lançado Apr 26, 2006 de Taiyuan Satellite Launch Center

Loading…

Próximas Passagens (próximas 24 horas)

TLE

AtualizadoSource: Space-Track

Época: Sep 13, 2026, 20:18 UTC

1 29536U 06015C   26256.84592113  .00014197  00000-0  11998-2 0  9993
2 29536  97.8798 216.9059 0081099  28.4940 332.0678 14.95625864 77172

Acompanhe CZ-4B DEB em tempo real com AllMySat

Download on the App Store